,,Stat5,,Stat1,,Stat2,,Stat3,,Stat4,,Wind1,,Wind1,
time,status,PA1M_AVG,status,PR1M_SUM,status,RH1M_AVG,status,SR1M_AVG,status,TA1M_AVG,status,W1dAve1m,status,W1sAve1m,
2001-07-14, 00:00:01,VALID,917.75,VALID,0,VALID,97.3439,VALID,0,VALID,19.4324,VALID,97,VALID,0.140825,
2001-07-14, 00:01:00,VALID,917.745,VALID,0,VALID,97.0934,VALID,0.0169808,VALID,19.4003,VALID,97,VALID,0.107366,
2001-07-14, 00:02:00,VALID,917.752,VALID,0,VALID,97.2523,VALID,0.0169808,VALID,19.371,VALID,96,VALID,0.169034,
2001-07-14, 00:03:00,VALID,917.777,VALID,0,VALID,97.1646,VALID,0,VALID,19.3646,VALID,96,VALID,0.00422297,
2001-07-14, 00:04:00,VALID,917.776,VALID,0,VALID,97.2142,VALID,0.0169808,VALID,19.335,VALID,96,VALID,0,
2001-07-14, 00:05:00,VALID,917.789,VALID,0,VALID,97.4214,VALID,-0.0169808,VALID,19.3646,VALID,97,VALID,0,
2001-07-14, 00:06:00,VALID,917.798,VALID,0,VALID,97.2968,VALID,0.0169808,VALID,19.3477,VALID,96,VALID,0,
2001-07-14, 00:07:00,VALID,917.799,VALID,0,VALID,97.452,VALID,0,VALID,19.3648,VALID,96,VALID,0,
2001-07-14, 00:08:00,VALID,917.79,VALID,0,VALID,97.2803,VALID,0,VALID,19.3288,VALID,74,VALID,0,
2001-07-14, 00:09:00,VALID,917.788,VALID,0,VALID,96.8746,VALID,0,VALID,19.2352,VALID,68,VALID,0.041174,
2001-07-14, 00:10:00,VALID,917.773,VALID,0,VALID,96.9573,VALID,0.0169808,VALID,19.1803,VALID,68,VALID,0.22574,
2001-07-14, 00:11:00,VALID,917.754,VALID,0,VALID,97.129,VALID,0,VALID,19.1614,VALID,68,VALID,0.281461,
2001-07-14, 00:12:00,VALID,917.74,VALID,0,VALID,97.3362,VALID,0,VALID,19.1482,VALID,58,VALID,0.359375,
2001-07-14, 00:13:00,VALID,917.74,VALID,0,VALID,97.143,VALID,0,VALID,19.1092,VALID,45,VALID,0.479567,
2001-07-14, 00:14:00,VALID,917.744,VALID,0,VALID,97.6745,VALID,0,VALID,19.1291,VALID,38,VALID,0.32339,
2001-07-14, 00:15:00,VALID,917.751,VALID,0,VALID,98.0102,VALID,0,VALID,19.2063,VALID,38,VALID,0.095818,
2001-07-14, 00:16:00,VALID,917.764,VALID,0,VALID,98.0598,VALID,-0.0169808,VALID,19.2384,VALID,38,VALID,0,
2001-07-14, 00:17:00,VALID,917.788,VALID,0,VALID,98.2022,VALID,-0.0169808,VALID,19.2968,VALID,38,VALID,0.00950169,
2001-07-14, 00:18:00,VALID,917.796,VALID,0,VALID,98.2989,VALID,0.0169808,VALID,19.3484,VALID,36,VALID,0.101985,
2001-07-14, 00:19:00,VALID,917.81,VALID,0,VALID,98.3612,VALID,0,VALID,19.3872,VALID,35,VALID,0.00173611,
2001-07-14, 00:20:00,VALID,917.817,VALID,0,VALID,98.379,VALID,-0.0169808,VALID,19.4093,VALID,35,VALID,0,
2001-07-14, 00:21:00,VALID,917.794,VALID,0,VALID,98.2683,VALID,0,VALID,19.3907,VALID,35,VALID,0,
2001-07-14, 00:22:00,VALID,917.794,VALID,0,VALID,98.0293,VALID,0,VALID,19.3261,VALID,35,VALID,0,
2001-07-14, 00:23:00,VALID,917.788,VALID,0,VALID,97.3986,VALID,0,VALID,19.1646,VALID,35,VALID,0.0830592,
2001-07-14, 00:24:00,VALID,917.769,VALID,0,VALID,97.4214,VALID,0,VALID,19.0993,VALID,35,VALID,0.267948,
2001-07-14, 00:25:00,VALID,917.763,VALID,0,VALID,97.4876,VALID,0.0169808,VALID,19.0933,VALID,35,VALID,0.240337,
2001-07-14, 00:26:00,VALID,917.743,VALID,0,VALID,97.644,VALID,0,VALID,19.103,VALID,35,VALID,0.0688345,
2001-07-14, 00:27:00,VALID,917.751,VALID,0,VALID,97.7063,VALID,0,VALID,19.1321,VALID,35,VALID,0,
2001-07-14, 00:28:00,VALID,917.734,VALID,0,VALID,97.6885,VALID,-0.0169808,VALID,19.1323,VALID,35,VALID,0,
2001-07-14, 00:29:00,VALID,917.732,VALID,0,VALID,97.7673,VALID,0,VALID,19.1487,VALID,35,VALID,0.0968276,
2001-07-14, 00:30:00,VALID,917.729,VALID,0,VALID,97.6847,VALID,-0.0339617,VALID,19.1494,VALID,35,VALID,0.290441,
2001-07-14, 00:31:00,VALID,917.718,VALID,0,VALID,97.1913,VALID,-0.0169808,VALID,19.0421,VALID,35,VALID,0.255912,
2001-07-14, 00:32:00,VALID,917.723,VALID,0,VALID,97.2956,VALID,0,VALID,19.0093,VALID,24,VALID,0.315878,
2001-07-14, 00:33:00,VALID,917.736,VALID,0,VALID,97.1964,VALID,0,VALID,18.9738,VALID,14,VALID,0.264147,
2001-07-14, 00:34:00,VALID,917.757,VALID,0,VALID,97.7953,VALID,0,VALID,19.0841,VALID,319,VALID,0.411675,
2001-07-14, 00:35:00,VALID,917.774,VALID,0,VALID,98.1221,VALID,0,VALID,19.1618,VALID,299,VALID,0.364583,
2001-07-14, 00:36:00,VALID,917.771,VALID,0,VALID,98.3205,VALID,-0.0169808,VALID,19.2389,VALID,296,VALID,0.239865,
2001-07-14, 00:37:00,VALID,917.757,VALID,0,VALID,98.4743,VALID,0.0169808,VALID,19.335,VALID,296,VALID,0.0676339,
2001-07-14, 00:38:00,VALID,917.743,VALID,0,VALID,98.5519,VALID,0,VALID,19.4167,VALID,297,VALID,0.077097,
2001-07-14, 00:39:00,VALID,917.736,VALID,0,VALID,98.5405,VALID,-0.0169808,VALID,19.4394,VALID,296,VALID,0.217694,
2001-07-14, 00:40:00,VALID,917.737,VALID,0,VALID,98.5112,VALID,-0.0169808,VALID,19.4389,VALID,296,VALID,0.168791,
2001-07-14, 00:41:00,VALID,917.735,VALID,0,VALID,98.4705,VALID,0,VALID,19.4264,VALID,296,VALID,0.000844595,
2001-07-14, 00:42:00,VALID,917.731,VALID,0,VALID,98.4807,VALID,-0.0679233,VALID,19.4468,VALID,296,VALID,0,
2001-07-14, 00:43:00,VALID,917.717,VALID,0,VALID,98.4909,VALID,-0.101885,VALID,19.4671,VALID,296,VALID,0,
2001-07-14, 00:44:00,VALID,917.731,VALID,0,VALID,98.4692,VALID,-0.118866,VALID,19.4508,VALID,296,VALID,0,
2001-07-14, 00:45:00,VALID,917.748,VALID,0,VALID,98.4794,VALID,-0.118866,VALID,19.4475,VALID,296,VALID,0,
2001-07-14, 00:46:00,VALID,917.756,VALID,0,VALID,98.4451,VALID,-0.101885,VALID,19.4537,VALID,296,VALID,0,
2001-07-14, 00:47:00,VALID,917.765,VALID,0,VALID,98.3472,VALID,-0.101885,VALID,19.4244,VALID,296,VALID,0,
2001-07-14, 00:48:00,VALID,917.772,VALID,0,VALID,98.3573,VALID,-0.118866,VALID,19.4252,VALID,296,VALID,0,
2001-07-14, 00:49:00,VALID,917.754,VALID,0,VALID,98.3955,VALID,-0.118866,VALID,19.4411,VALID,296,VALID,0,
2001-07-14, 00:50:00,VALID,917.739,VALID,0,VALID,98.4692,VALID,-0.101885,VALID,19.4831,VALID,296,VALID,0,
2001-07-14, 00:51:00,VALID,917.715,VALID,0,VALID,98.4883,VALID,-0.118866,VALID,19.5154,VALID,296,VALID,0,
2001-07-14, 00:52:00,VALID,917.671,VALID,0,VALID,98.4451,VALID,-0.118866,VALID,19.5186,VALID,296,VALID,0,
2001-07-14, 00:53:00,VALID,917.654,VALID,0,VALID,98.4286,VALID,-0.101885,VALID,19.5154,VALID,296,VALID,0,
2001-07-14, 00:54:00,VALID,917.628,VALID,0,VALID,98.3917,VALID,-0.118866,VALID,19.5248,VALID,297,VALID,0,
2001-07-14, 00:55:00,VALID,917.605,VALID,0,VALID,98.3039,VALID,-0.135847,VALID,19.4925,VALID,19,VALID,0.304071,
2001-07-14, 00:56:00,VALID,917.605,VALID,0,VALID,98.1221,VALID,-0.101885,VALID,19.4281,VALID,37,VALID,0.603674,
2001-07-14, 00:57:00,VALID,917.612,VALID,0,VALID,98.2302,VALID,-0.0679233,VALID,19.4237,VALID,27,VALID,0.680357,
2001-07-14, 00:58:00,VALID,917.614,VALID,0,VALID,98.2035,VALID,0,VALID,19.4232,VALID,19,VALID,0.481771,
2001-07-14, 00:59:00,VALID,917.617,VALID,0,VALID,98.0979,VALID,-0.0169808,VALID,19.3777,VALID,19,VALID,0.229877,
2001-07-14, 01:00:00,VALID,917.609,VALID,0,VALID,98.0674,VALID,-0.0169808,VALID,19.3454,VALID,19,VALID,0.0712316,
2001-07-14, 01:01:00,VALID,917.592,VALID,0,VALID,98.2162,VALID,0.0169808,VALID,19.3743,VALID,19,VALID,0,
2001-07-14, 01:02:00,VALID,917.565,VALID,0,VALID,98.3065,VALID,0,VALID,19.4071,VALID,19,VALID,0,
2001-07-14, 01:03:00,VALID,917.561,VALID,0,VALID,98.3904,VALID,0,VALID,19.452,VALID,19,VALID,0,
2001-07-14, 01:04:00,VALID,917.551,VALID,0,VALID,98.3802,VALID,-0.0169808,VALID,19.4779,VALID,19,VALID,0.0130208,
2001-07-14, 01:05:00,VALID,917.543,VALID,0,VALID,98.3459,VALID,0,VALID,19.4908,VALID,19,VALID,0.158053,
2001-07-14, 01:06:00,VALID,917.545,VALID,0,VALID,98.3879,VALID,0,VALID,19.5069,VALID,9,VALID,0.588682,
2001-07-14, 01:07:00,VALID,917.539,VALID,0,VALID,98.5214,VALID,0,VALID,19.5777,VALID,6,VALID,0.567857,
2001-07-14, 01:08:00,VALID,917.512,VALID,0,VALID,98.5926,VALID,-0.0339617,VALID,19.6398,VALID,24,VALID,0.626645,
2001-07-14, 01:09:00,VALID,917.484,VALID,0,VALID,98.6015,VALID,-0.0169808,VALID,19.6622,VALID,36,VALID,0.879434,
2001-07-14, 01:10:00,VALID,917.465,VALID,0,VALID,98.6396,VALID,0,VALID,19.6905,VALID,33,VALID,0.931538,
2001-07-14, 01:11:00,VALID,917.466,VALID,0,VALID,98.6066,VALID,0,VALID,19.694,VALID,28,VALID,0.737753,
2001-07-14, 01:12:00,VALID,917.462,VALID,0,VALID,98.5837,VALID,0,VALID,19.6746,VALID,42,VALID,0.481027,
2001-07-14, 01:13:00,VALID,917.479,VALID,0,VALID,98.5494,VALID,0,VALID,19.6749,VALID,56,VALID,0.460737,
2001-07-14, 01:14:00,VALID,917.504,VALID,0,VALID,98.5455,VALID,-0.0169808,VALID,19.6622,VALID,53,VALID,0.312737,
2001-07-14, 01:15:00,VALID,917.521,VALID,0,VALID,98.5176,VALID,0,VALID,19.6197,VALID,50,VALID,0.240579,
2001-07-14, 01:16:00,VALID,917.508,VALID,0,VALID,98.4565,VALID,-0.0169808,VALID,19.5775,VALID,50,VALID,0.545186,
2001-07-14, 01:17:00,VALID,917.484,VALID,0,VALID,98.4425,VALID,0,VALID,19.5579,VALID,50,VALID,0.583404,
2001-07-14, 01:18:00,VALID,917.452,VALID,0,VALID,98.4375,VALID,-0.0169808,VALID,19.5452,VALID,51,VALID,0.715794,
2001-07-14, 01:19:00,VALID,917.436,VALID,0,VALID,98.426,VALID,0,VALID,19.5228,VALID,49,VALID,0.773003,
2001-07-14, 01:20:00,VALID,917.414,VALID,0,VALID,98.4209,VALID,-0.0169808,VALID,19.5231,VALID,49,VALID,0.61859,
2001-07-14, 01:21:00,VALID,917.4,VALID,0,VALID,98.3866,VALID,-0.0169808,VALID,19.497,VALID,55,VALID,0.544975,
2001-07-14, 01:22:00,VALID,917.362,VALID,0,VALID,98.3942,VALID,0,VALID,19.491,VALID,61,VALID,0.587277,
2001-07-14, 01:23:00,VALID,917.339,VALID,0,VALID,98.4044,VALID,0,VALID,19.4669,VALID,63,VALID,0.463816,
2001-07-14, 01:24:00,VALID,917.308,VALID,0,VALID,98.3217,VALID,-0.0169808,VALID,19.4486,VALID,65,VALID,0.361275,
2001-07-14, 01:25:00,VALID,917.26,VALID,0,VALID,98.3929,VALID,-0.0339617,VALID,19.4356,VALID,67,VALID,0.174342,
2001-07-14, 01:26:00,VALID,917.241,VALID,0,VALID,98.3573,VALID,-0.0169808,VALID,19.4195,VALID,73,VALID,0.415541,
2001-07-14, 01:27:00,VALID,917.207,VALID,0,VALID,98.2264,VALID,-0.0339617,VALID,19.3743,VALID,84,VALID,0.384821,
2001-07-14, 01:28:00,VALID,917.183,VALID,0,VALID,98.1145,VALID,-0.0169808,VALID,19.3,VALID,63,VALID,0.238982,
2001-07-14, 01:29:00,VALID,917.137,VALID,0,VALID,98.234,VALID,-0.0169808,VALID,19.2841,VALID,63,VALID,0.0255682,
2001-07-14, 01:30:00,VALID,917.125,VALID,0,VALID,98.2391,VALID,0,VALID,19.2806,VALID,63,VALID,0.00229779,
2001-07-14, 01:31:00,VALID,917.095,VALID,0,VALID,98.234,VALID,0,VALID,19.2739,VALID,63,VALID,0,
2001-07-14, 01:32:00,VALID,917.083,VALID,0,VALID,98.2327,VALID,0,VALID,19.2712,VALID,63,VALID,0,
2001-07-14, 01:33:00,VALID,917.069,VALID,0,VALID,98.2238,VALID,0,VALID,19.2776,VALID,63,VALID,0,
2001-07-14, 01:34:00,VALID,917.061,VALID,0,VALID,98.0674,VALID,0,VALID,19.2386,VALID,61,VALID,0.0438368,
2001-07-14, 01:35:00,VALID,917.044,VALID,0,VALID,98.0649,VALID,0.0169808,VALID,19.2153,VALID,353,VALID,0.28766,
2001-07-14, 01:36:00,VALID,917.029,VALID,0,VALID,98.2276,VALID,0.0339617,VALID,19.2809,VALID,331,VALID,0.299409,
2001-07-14, 01:37:00,VALID,917.012,VALID,0,VALID,98.2416,VALID,0.0169808,VALID,19.2804,VALID,331,VALID,0.344866,
2001-07-14, 01:38:00,VALID,917.002,VALID,0,VALID,98.2365,VALID,0,VALID,19.2704,VALID,320,VALID,0.401316,
2001-07-14, 01:39:00,VALID,917.006,VALID,0,VALID,98.4349,VALID,0,VALID,19.3551,VALID,298,VALID,0.384079,
2001-07-14, 01:40:00,VALID,916.999,VALID,0,VALID,98.5239,VALID,0,VALID,19.4098,VALID,317,VALID,0.109169,
2001-07-14, 01:41:00,VALID,916.992,VALID,0,VALID,98.5112,VALID,0.0339617,VALID,19.4063,VALID,317,VALID,0.0168919,
2001-07-14, 01:42:00,VALID,916.999,VALID,0,VALID,98.4959,VALID,0.0169808,VALID,19.4066,VALID,317,VALID,0,
2001-07-14, 01:43:00,VALID,917.006,VALID,0,VALID,98.4413,VALID,0,VALID,19.3939,VALID,317,VALID,0,
2001-07-14, 01:44:00,VALID,917.014,VALID,0,VALID,98.4298,VALID,0,VALID,19.3812,VALID,317,VALID,0,
2001-07-14, 01:45:00,VALID,917.024,VALID,0,VALID,98.4349,VALID,-0.0169808,VALID,19.3807,VALID,317,VALID,0,
2001-07-14, 01:46:00,VALID,917.008,VALID,0,VALID,98.22,VALID,-0.0169808,VALID,19.3325,VALID,317,VALID,0,
2001-07-14, 01:47:00,VALID,916.982,VALID,0,VALID,97.5359,VALID,0,VALID,19.142,VALID,318,VALID,0.0352618,
2001-07-14, 01:48:00,VALID,916.95,VALID,0,VALID,97.4748,VALID,-0.0169808,VALID,19.055,VALID,338,VALID,0.202492,
2001-07-14, 01:49:00,VALID,916.932,VALID,0,VALID,97.6046,VALID,0.0169808,VALID,19.0511,VALID,349,VALID,0.0112847,
2001-07-14, 01:50:00,VALID,916.939,VALID,0,VALID,97.6707,VALID,0,VALID,19.0645,VALID,349,VALID,0,
2001-07-14, 01:51:00,VALID,916.946,VALID,0,VALID,97.6898,VALID,-0.0169808,VALID,19.0645,VALID,349,VALID,0,
2001-07-14, 01:52:00,VALID,916.951,VALID,0,VALID,97.8462,VALID,0.0339617,VALID,19.1062,VALID,316,VALID,0.127232,
2001-07-14, 01:53:00,VALID,916.927,VALID,0,VALID,97.9733,VALID,0,VALID,19.1422,VALID,240,VALID,0.265831,
2001-07-14, 01:54:00,VALID,916.903,VALID,0,VALID,98.0636,VALID,0,VALID,19.1514,VALID,204,VALID,0.156883,
2001-07-14, 01:55:01,VALID,916.896,VALID,0,VALID,98.1106,VALID,0,VALID,19.1842,VALID,204,VALID,0,
2001-07-14, 01:56:00,VALID,916.875,VALID,0,VALID,98.1361,VALID,0,VALID,19.1845,VALID,204,VALID,0,
2001-07-14, 01:57:00,VALID,916.865,VALID,0,VALID,98.0483,VALID,-0.0169808,VALID,19.1646,VALID,204,VALID,0,
2001-07-14, 01:58:01,VALID,916.86,VALID,0,VALID,97.6847,VALID,0,VALID,19.0677,VALID,204,VALID,0,
2001-07-14, 01:59:00,VALID,916.871,VALID,0,VALID,97.3566,VALID,-0.0169808,VALID,18.9616,VALID,204,VALID,0,
2001-07-14, 02:00:00,VALID,916.865,VALID,0,VALID,97.5995,VALID,0.0169808,VALID,18.9452,VALID,204,VALID,0,
2001-07-14, 02:01:00,VALID,916.87,VALID,0,VALID,97.8423,VALID,0,VALID,18.9877,VALID,204,VALID,0,
2001-07-14, 02:02:00,VALID,916.87,VALID,0,VALID,98.0878,VALID,0.0169808,VALID,19.0128,VALID,204,VALID,0,
2001-07-14, 02:03:00,VALID,916.856,VALID,0,VALID,98.1806,VALID,0.0169808,VALID,19.0449,VALID,204,VALID,0.155617,
2001-07-14, 02:04:00,VALID,916.86,VALID,0,VALID,98.1539,VALID,0,VALID,19.0451,VALID,204,VALID,0.306424,
2001-07-14, 02:05:01,VALID,916.824,VALID,0,VALID,98.0992,VALID,0,VALID,19.0223,VALID,204,VALID,0.030816,
2001-07-14, 02:06:00,VALID,916.824,VALID,0,VALID,98.1119,VALID,0,VALID,19.0195,VALID,204,VALID,0,
2001-07-14, 02:07:00,VALID,916.841,VALID,0,VALID,98.2213,VALID,0,VALID,19.0421,VALID,204,VALID,0,
2001-07-14, 02:08:01,VALID,916.845,VALID,0,VALID,98.2925,VALID,0,VALID,19.0647,VALID,204,VALID,0,
2001-07-14, 02:09:00,VALID,916.857,VALID,0,VALID,98.4438,VALID,0.0169808,VALID,19.0933,VALID,201,VALID,0,
2001-07-14, 02:10:01,VALID,916.863,VALID,0,VALID,98.5036,VALID,0.0169808,VALID,19.1487,VALID,248,VALID,0,
2001-07-14, 02:11:00,VALID,916.858,VALID,0,VALID,98.2022,VALID,-0.0169808,VALID,19.0682,VALID,7,VALID,0,
2001-07-14, 02:12:00,VALID,916.865,VALID,0,VALID,98.1221,VALID,0,VALID,19.0064,VALID,11,VALID,0,
2001-07-14, 02:13:01,VALID,916.852,VALID,0,VALID,98.1704,VALID,0,VALID,19.0101,VALID,11,VALID,0,
2001-07-14, 02:14:00,VALID,916.829,VALID,0,VALID,98.1831,VALID,-0.0169808,VALID,18.99,VALID,11,VALID,0,
2001-07-14, 02:15:00,VALID,916.81,VALID,0,VALID,98.2035,VALID,0,VALID,18.9867,VALID,11,VALID,0,
2001-07-14, 02:16:00,VALID,916.8,VALID,0,VALID,98.2238,VALID,0,VALID,18.9773,VALID,11,VALID,0,
2001-07-14, 02:17:00,VALID,916.784,VALID,0,VALID,98.2874,VALID,0,VALID,18.987,VALID,11,VALID,0,
2001-07-14, 02:18:00,VALID,916.773,VALID,0,VALID,98.323,VALID,0.0169808,VALID,19.0068,VALID,11,VALID,0,
2001-07-14, 02:19:01,VALID,916.766,VALID,0,VALID,98.3624,VALID,-0.0339617,VALID,19.0068,VALID,11,VALID,0,
2001-07-14, 02:20:01,VALID,916.779,VALID,0,VALID,98.3751,VALID,-0.0339617,VALID,19.0096,VALID,11,VALID,0,
2001-07-14, 02:21:00,VALID,916.791,VALID,0,VALID,98.3395,VALID,-0.0169808,VALID,19.0041,VALID,11,VALID,0,
2001-07-14, 02:22:00,VALID,916.801,VALID,0,VALID,98.3103,VALID,0,VALID,18.9748,VALID,11,VALID,0,
2001-07-14, 02:23:01,VALID,916.813,VALID,0,VALID,98.3675,VALID,0,VALID,18.9683,VALID,11,VALID,0,
2001-07-14, 02:24:00,VALID,916.837,VALID,0,VALID,98.4336,VALID,-0.0169808,VALID,18.9812,VALID,11,VALID,0,
2001-07-14, 02:25:01,VALID,916.84,VALID,0,VALID,98.4591,VALID,0,VALID,18.9875,VALID,11,VALID,0,
2001-07-14, 02:26:00,VALID,916.824,VALID,0,VALID,98.4502,VALID,0,VALID,18.9681,VALID,11,VALID,0,
2001-07-14, 02:27:00,VALID,916.825,VALID,0,VALID,98.4425,VALID,-0.0339617,VALID,18.9686,VALID,11,VALID,0.202009,
2001-07-14, 02:28:01,VALID,916.827,VALID,0,VALID,98.4527,VALID,-0.0339617,VALID,18.9425,VALID,11,VALID,0.100561,
2001-07-14, 02:29:00,VALID,916.822,VALID,0,VALID,98.501,VALID,-0.0509425,VALID,18.9529,VALID,11,VALID,0,
2001-07-14, 02:30:00,VALID,916.817,VALID,0,VALID,98.4972,VALID,-0.0509425,VALID,18.9261,VALID,11,VALID,0,
2001-07-14, 02:31:00,VALID,916.808,VALID,0,VALID,98.4756,VALID,-0.0509425,VALID,18.9104,VALID,11,VALID,0,
2001-07-14, 02:32:00,VALID,916.801,VALID,0,VALID,98.5087,VALID,-0.0339617,VALID,18.9109,VALID,11,VALID,0,
2001-07-14, 02:33:00,VALID,916.787,VALID,0,VALID,98.5023,VALID,0,VALID,18.8814,VALID,12,VALID,0,
2001-07-14, 02:34:00,VALID,916.795,VALID,0,VALID,98.4692,VALID,-0.0339617,VALID,18.8585,VALID,24,VALID,0,
2001-07-14, 02:35:01,VALID,916.781,VALID,0,VALID,98.5188,VALID,-0.0339617,VALID,18.8523,VALID,36,VALID,0,
2001-07-14, 02:36:00,VALID,916.778,VALID,0,VALID,98.5875,VALID,-0.0509425,VALID,18.868,VALID,33,VALID,0.0458193,
2001-07-14, 02:37:00,VALID,916.759,VALID,0,VALID,98.6231,VALID,-0.0509425,VALID,18.8814,VALID,30,VALID,0.598437,
2001-07-14, 02:38:01,VALID,916.752,VALID,0,VALID,98.6435,VALID,-0.0339617,VALID,18.8717,VALID,32,VALID,0.754934,
2001-07-14, 02:39:00,VALID,916.761,VALID,0,VALID,98.6549,VALID,-0.0169808,VALID,18.8553,VALID,40,VALID,0.751056,
2001-07-14, 02:40:01,VALID,916.755,VALID,0,VALID,98.7172,VALID,-0.0169808,VALID,18.8647,VALID,41,VALID,0.707031,
2001-07-14, 02:41:00,VALID,916.766,VALID,0,VALID,98.7375,VALID,-0.0679233,VALID,18.8749,VALID,49,VALID,0.642525,
2001-07-14, 02:42:00,VALID,916.77,VALID,0,VALID,98.796,VALID,-0.0169808,VALID,18.8977,VALID,51,VALID,0.642634,
2001-07-14, 02:43:01,VALID,916.756,VALID,0,VALID,98.8342,VALID,-0.0339617,VALID,18.9137,VALID,57,VALID,0.572115,
2001-07-14, 02:44:00,VALID,916.736,VALID,0,VALID,98.8494,VALID,-0.0679233,VALID,18.9233,VALID,53,VALID,0.701941,
2001-07-14, 02:45:00,VALID,916.731,VALID,0,VALID,98.8266,VALID,-0.0509425,VALID,18.9072,VALID,47,VALID,0.793199,
2001-07-14, 02:46:00,VALID,916.712,VALID,0,VALID,98.8355,VALID,-0.0169808,VALID,18.8975,VALID,45,VALID,0.54603,
2001-07-14, 02:47:00,VALID,916.72,VALID,0,VALID,98.8609,VALID,-0.0169808,VALID,18.8918,VALID,45,VALID,0.387247,
2001-07-14, 02:48:00,VALID,916.715,VALID,0,VALID,98.8584,VALID,-0.0509425,VALID,18.8618,VALID,36,VALID,0.218328,
2001-07-14, 02:49:01,VALID,916.714,VALID,0,VALID,98.8571,VALID,0,VALID,18.8525,VALID,20,VALID,0.347873,
2001-07-14, 02:50:01,VALID,916.694,VALID,0,VALID,98.88,VALID,-0.0509425,VALID,18.8327,VALID,20,VALID,0.298077,
2001-07-14, 02:51:00,VALID,916.682,VALID,0,VALID,98.8863,VALID,0,VALID,18.8258,VALID,20,VALID,0.235008,
2001-07-14, 02:52:00,VALID,916.66,VALID,0,VALID,98.9143,VALID,-0.0169808,VALID,18.8332,VALID,26,VALID,0.29308,
2001-07-14, 02:53:01,VALID,916.619,VALID,0,VALID,98.8863,VALID,-0.0509425,VALID,18.7905,VALID,50,VALID,0.575247,
2001-07-14, 02:54:00,VALID,916.597,VALID,0,VALID,98.852,VALID,-0.0169808,VALID,18.7646,VALID,56,VALID,0.725929,
2001-07-14, 02:55:01,VALID,916.574,VALID,0,VALID,98.8838,VALID,-0.0509425,VALID,18.7552,VALID,61,VALID,0.776316,
2001-07-14, 02:56:00,VALID,916.572,VALID,0,VALID,98.8927,VALID,-0.0169808,VALID,18.7289,VALID,57,VALID,0.720228,
2001-07-14, 02:57:00,VALID,916.589,VALID,0,VALID,98.955,VALID,0,VALID,18.7487,VALID,56,VALID,0.423438,
2001-07-14, 02:58:01,VALID,916.611,VALID,0,VALID,99.002,VALID,0,VALID,18.7616,VALID,56,VALID,0.222756,
2001-07-14, 02:59:00,VALID,916.631,VALID,0,VALID,99.0084,VALID,-0.0509425,VALID,18.7619,VALID,56,VALID,0,
2001-07-14, 03:00:00,VALID,916.664,VALID,0,VALID,98.9881,VALID,-0.0169808,VALID,18.7291,VALID,357,VALID,0.0746783,
2001-07-14, 03:01:00,VALID,916.679,VALID,0,VALID,98.955,VALID,-0.0339617,VALID,18.6908,VALID,250,VALID,0.125211,
2001-07-14, 03:02:00,VALID,916.679,VALID,0,VALID,98.9168,VALID,-0.0339617,VALID,18.6521,VALID,226,VALID,0.322002,
2001-07-14, 03:03:00,VALID,916.685,VALID,0,VALID,98.88,VALID,-0.0169808,VALID,18.5967,VALID,207,VALID,0.331503,
2001-07-14, 03:04:00,VALID,916.68,VALID,0,VALID,98.8062,VALID,-0.0169808,VALID,18.5421,VALID,191,VALID,0.269748,
2001-07-14, 03:05:00,VALID,916.655,VALID,0,VALID,98.7732,VALID,-0.0509425,VALID,18.4909,VALID,112,VALID,0.233373,
2001-07-14, 03:06:00,VALID,916.619,VALID,0,VALID,98.7566,VALID,-0.0679233,VALID,18.4194,VALID,84,VALID,0.517103,
2001-07-14, 03:07:00,VALID,916.595,VALID,0,VALID,98.707,VALID,-0.0169808,VALID,18.3391,VALID,65,VALID,0.726116,
2001-07-14, 03:08:01,VALID,916.578,VALID,0,VALID,98.7719,VALID,-0.0169808,VALID,18.287,VALID,65,VALID,0.684622,
2001-07-14, 03:09:00,VALID,916.577,VALID,0,VALID,98.8901,VALID,-0.0169808,VALID,18.2803,VALID,69,VALID,0.42103,
2001-07-14, 03:10:01,VALID,916.577,VALID,0,VALID,98.9474,VALID,-0.0679233,VALID,18.2969,VALID,77,VALID,0.171258,
2001-07-14, 03:11:00,VALID,916.589,VALID,0,VALID,98.9575,VALID,-0.0509425,VALID,18.2969,VALID,82,VALID,0.0249155,
2001-07-14, 03:12:00,VALID,916.596,VALID,0,VALID,98.9703,VALID,0.0169808,VALID,18.2934,VALID,82,VALID,0.0227679,
2001-07-14, 03:13:01,VALID,916.593,VALID,0,VALID,98.9575,VALID,0.0849042,VALID,18.2925,VALID,82,VALID,0.127604,
2001-07-14, 03:14:01,VALID,916.584,VALID,0,VALID,98.9601,VALID,0.0509425,VALID,18.2729,VALID,82,VALID,0.182292,
2001-07-14, 03:15:00,VALID,916.569,VALID,0,VALID,98.969,VALID,0.0509425,VALID,18.2768,VALID,82,VALID,0.117647,
2001-07-14, 03:16:00,VALID,916.538,VALID,0,VALID,99.002,VALID,0.0679233,VALID,18.2831,VALID,82,VALID,0.145693,
2001-07-14, 03:17:00,VALID,916.516,VALID,0,VALID,98.9855,VALID,0.0849042,VALID,18.2865,VALID,82,VALID,0.129434,
2001-07-14, 03:18:01,VALID,916.496,VALID,0,VALID,98.8914,VALID,0.0509425,VALID,18.231,VALID,82,VALID,0.00506757,
2001-07-14, 03:19:01,VALID,916.472,VALID,0,VALID,98.8418,VALID,0.0509425,VALID,18.1632,VALID,82,VALID,0.0106337,
2001-07-14, 03:20:01,VALID,916.456,VALID,0,VALID,98.7236,VALID,0.0339617,VALID,18.073,VALID,82,VALID,0,
2001-07-14, 03:21:01,VALID,916.448,VALID,0,VALID,98.8393,VALID,0.0339617,VALID,18.0315,VALID,82,VALID,0,
2001-07-14, 03:22:00,VALID,916.46,VALID,0,VALID,98.8774,VALID,0.0679233,VALID,18.0024,VALID,82,VALID,0,
2001-07-14, 03:23:01,VALID,916.458,VALID,0,VALID,98.7782,VALID,0.0849042,VALID,17.9379,VALID,82,VALID,0,
2001-07-14, 03:24:00,VALID,916.46,VALID,0,VALID,98.6663,VALID,0.0849042,VALID,17.8472,VALID,82,VALID,0.331081,
2001-07-14, 03:25:01,VALID,916.455,VALID,0,VALID,98.777,VALID,0.0849042,VALID,17.8083,VALID,82,VALID,0.538446,
2001-07-14, 03:26:01,VALID,916.433,VALID,0,VALID,98.8151,VALID,0.0509425,VALID,17.8023,VALID,74,VALID,0.763091,
2001-07-14, 03:27:00,VALID,916.413,VALID,0,VALID,98.7604,VALID,0,VALID,17.7388,VALID,67,VALID,0.718304,
2001-07-14, 03:28:01,VALID,916.392,VALID,0,VALID,98.8863,VALID,0.0509425,VALID,17.7179,VALID,72,VALID,0.692107,
2001-07-14, 03:29:01,VALID,916.389,VALID,0,VALID,99.0249,VALID,0.0509425,VALID,17.7771,VALID,90,VALID,0.560369,
2001-07-14, 03:30:01,VALID,916.385,VALID,0,VALID,99.0071,VALID,0.0339617,VALID,17.7831,VALID,122,VALID,0.573529,
2001-07-14, 03:31:00,VALID,916.382,VALID,0,VALID,99.1165,VALID,0.0679233,VALID,17.8023,VALID,132,VALID,0.683277,
2001-07-14, 03:32:01,VALID,916.376,VALID,0,VALID,99.222,VALID,0.0509425,VALID,17.8733,VALID,129,VALID,0.645059,
2001-07-14, 03:33:01,VALID,916.36,VALID,0,VALID,99.2322,VALID,0.0679233,VALID,17.9155,VALID,125,VALID,0.480997,
2001-07-14, 03:34:01,VALID,916.346,VALID,0,VALID,99.2131,VALID,0.0679233,VALID,17.948,VALID,114,VALID,0.549696,
2001-07-14, 03:35:01,VALID,916.34,VALID,0,VALID,99.2004,VALID,0.0339617,VALID,17.9512,VALID,114,VALID,0.61258,
2001-07-14, 03:36:01,VALID,916.334,VALID,0,VALID,99.203,VALID,0.0509425,VALID,17.9644,VALID,116,VALID,0.507179,
2001-07-14, 03:37:01,VALID,916.339,VALID,0,VALID,99.1928,VALID,0.0679233,VALID,17.9415,VALID,116,VALID,0.523884,
2001-07-14, 03:38:01,VALID,916.334,VALID,0,VALID,99.2284,VALID,0,VALID,17.951,VALID,130,VALID,0.62315,
2001-07-14, 03:39:01,VALID,916.353,VALID,0,VALID,99.25,VALID,0.0509425,VALID,17.9865,VALID,141,VALID,0.752956,